Theta_e
303 302 302 302 303 304 305 305 307 308 308 309 309 310 311 310 312 312 317 315 315 312 311 310 308 318 320 315 315 313 319 325 329 326 328 325 329 324 325 328 329 329 329 332 335
303 303 303 303 302 302 304 305 306 307 308 308 309 309 310 310 311 310 311 315 314 310 311 309 308 318 326 322 316 317 321 324 321 323 324 323 328 327 328 329 331 333 333 335 333
304 304 304 304 304 304 303 303 305 306 307 308 308 308 309 309 310 310 313 315 314 310 310 307 307 312 328 321 318 318 323 322 319 318 319 321 325 326 329 330 329 331 335 332 333
305 305 305 305 305 304 305 304 303 305 307 308 308 307 307 309 312 307 312 316 313 313 310 308 309 311 314 328 322 321 322 323 319 316 319 320 324 327 328 330 327 329 334 333 333
305 305 305 305 305 305 305 305 305 303 304 307 308 305 307 310 309 308 310 311 313 313 311 307 311 312 314 316 324 323 321 321 318 316 318 319 321 324 326 327 327 329 334 335 335
304 304 304 305 305 305 305 305 305 305 304 304 308 308 308 309 307 309 310 314 314 313 309 307 309 313 314 313 322 322 322 319 315 315 317 317 317 319 322 322 329 332 334 336 335
304 304 304 304 305 305 305 305 305 305 304 303 307 307 308 309 307 308 309 313 313 311 307 306 308 313 315 315 314 316 323 320 316 316 317 317 317 317 318 325 329 333 334 335 335
303 302 303 304 304 305 305 305 303 303 304 305 307 307 307 305 306 307 309 311 312 311 307 306 310 313 315 314 315 315 316 320 319 316 316 317 321 318 317 321 323 332 334 335 335
303 303 304 304 304 304 304 301 297 302 304 306 307 307 308 307 308 309 310 311 311 310 309 307 310 312 315 316 316 316 318 318 318 316 317 317 319 317 313 317 319 327 333 335 335
303 303 303 303 304 304 302 295 299 303 302 305 306 309 308 309 308 311 310 311 311 313 310 311 310 310 314 316 318 317 317 316 317 316 316 318 317 316 314 314 317 319 328 333 335
302 303 303 303 304 304 296 300 300 301 302 303 303 303 304 308 308 311 309 312 312 312 309 314 311 311 311 313 314 316 315 316 315 313 317 317 317 316 316 316 316 315 316 323 331
302 303 302 301 302 298 297 299 300 301 304 302 303 304 303 306 307 309 310 313 312 311 313 313 310 309 309 313 313 314 316 316 311 311 317 317 317 316 316 316 317 317 317 315 316
301 301 300 299 300 298 299 298 301 301 304 302 304 307 309 307 308 309 309 312 312 311 312 310 307 309 313 314 313 313 314 314 314 313 312 313 315 314 314 313 312 315 317 317 317
302 300 300 299 299 297 297 298 300 301 304 301 306 306 308 308 310 308 309 310 312 311 313 309 309 309 310 314 314 314 311 312 314 314 316 310 316 312 310 311 310 312 313 314 315
301 300 301 300 299 298 298 299 300 300 304 300 306 304 305 308 308 308 306 307 309 312 309 309 310 312 310 307 312 312 311 312 312 313 311 313 314 315 309 310 310 309 309 310 311
300 300 300 300 300 299 298 299 299 302 300 301 303 301 304 308 308 308 306 305 306 312 311 311 308 309 309 309 310 312 313 312 312 313 316 311 313 315 316 313 312 311 310 309 308
301 301 300 300 300 299 299 295 303 299 296 302 302 302 304 308 310 309 309 309 311 314 317 312 310 309 309 312 311 312 311 315 314 314 314 308 310 310 311 310 308 308 306 304 305
301 300 299 298 299 300 296 302 298 290 298 300 301 302 307 305 308 311 310 311 307 309 315 317 316 310 308 310 312 312 308 313 308 309 307 307 309 308 310 307 307 306 306 306 306
299 299 298 298 299 298 300 301 297 295 298 300 301 303 305 304 306 307 312 312 310 308 313 318 317 310 306 309 311 312 310 308 308 302 312 310 309 308 308 307 305 305 304 305 305
298 297 298 298 297 295 301 298 295 292 298 300 300 301 303 304 305 306 310 310 311 309 310 312 316 310 309 310 310 311 308 309 310 309 308 306 306 307 306 307 304 304 305 305 304
297 299 297 298 295 298 299 294 291 295 298 300 300 299 302 306 304 306 306 308 306 309 311 312 313 311 309 312 313 311 309 310 309 308 308 308 307 306 307 304 304 304 302 302 304
295 300 296 297 300 292 296 290 295 296 297 297 298 301 303 303 305 306 307 307 304 307 313 312 313 314 312 309 308 312 312 310 311 311 307 307 307 301 302 302 301 302 301 302 303
294 295 296 296 299 297 289 290 293 296 298 298 298 299 301 302 305 306 306 305 304 304 306 308 312 314 313 313 309 311 311 312 313 309 313 312 311 301 301 302 301 302 302 303 306
295 298 296 297 292 295 293 290 294 293 297 298 298 299 299 299 301 302 303 303 303 304 303 306 311 311 310 310 310 312 310 311 312 316 314 312 311 303 302 303 302 302 302 303 307
293 295 290 296 295 295 294 291 293 296 295 296 297 298 299 298 298 301 301 301 302 305 304 305 310 311 309 308 310 311 311 310 312 313 313 313 311 310 304 305 305 302 301 303 307
295 295 292 291 291 294 294 294 293 295 296 296 298 298 298 297 297 299 300 301 302 302 303 306 308 307 306 307 310 311 311 311 310 311 311 311 311 308 307 304 304 305 305 303 305
293 293 296 295 294 294 294 295 293 295 296 296 297 297 298 298 297 299 298 299 300 302 302 304 305 306 307 305 306 310 311 311 311 311 311 313 312 309 309 308 304 302 304 306 304
Wind_Speed
13 14 15 17 17 18 19 20 21 22 21 21 21 22 22 25 26 26 25 19 17 24 19 10 13 8 8 1 1 3 5 10 14 9 5 4 6 2 2 6 4 6 1 2 25
12 13 15 16 17 18 19 20 21 22 22 22 21 22 24 24 23 28 26 24 27 25 9 13 12 12 6 7 2 4 4 11 6 8 5 2 6 7 6 8 7 7 5 16 24
13 14 15 16 18 19 20 22 22 23 22 23 22 22 23 18 13 26 25 31 29 25 21 7 15 12 11 8 7 5 6 13 11 9 4 2 4 5 7 9 10 14 13 17 21
14 15 17 18 19 20 21 23 23 23 23 23 23 24 21 11 8 2 8 16 34 29 21 15 10 16 10 13 16 8 13 20 18 9 4 4 3 4 10 3 3 5 18 20 19
15 17 18 19 20 21 23 24 24 24 23 24 23 23 21 8 8 23 29 22 19 31 27 19 16 19 15 10 14 14 17 18 18 9 7 3 6 4 7 9 2 8 17 19 18
16 17 18 20 21 22 24 25 27 26 24 23 21 20 13 7 6 10 18 14 15 32 28 24 11 16 13 8 19 16 15 14 9 14 7 7 5 4 3 4 6 11 15 16 20
16 18 19 20 21 22 25 27 30 30 27 23 18 15 8 10 10 14 9 7 8 27 19 21 13 12 9 9 8 7 17 15 14 8 7 6 9 10 7 4 8 10 12 14 15
15 17 18 20 22 22 26 29 33 33 24 16 15 9 6 10 14 15 11 12 10 18 15 15 7 6 5 7 5 12 9 17 20 11 7 12 19 14 11 8 9 10 11 13 16
16 17 18 19 21 23 26 31 29 18 9 11 7 6 6 4 5 19 11 4 8 12 11 13 11 7 4 11 7 16 16 23 14 11 12 16 12 13 2 11 13 10 11 11 12
15 16 18 20 21 23 26 28 17 11 20 0 1 3 2 4 6 4 10 4 5 11 10 13 10 11 12 15 19 19 22 11 18 8 13 13 16 5 3 7 11 11 8 10 12
13 16 18 20 21 20 24 9 7 3 15 6 17 13 13 9 5 2 10 0 3 14 11 15 11 19 27 24 15 15 14 18 7 6 9 19 18 17 10 6 7 11 10 10 12
13 15 17 20 17 14 13 6 9 11 10 15 11 9 15 3 5 5 1 2 8 15 11 10 18 17 16 14 14 14 16 14 2 2 5 4 17 15 13 11 15 12 10 11 12
13 15 17 18 12 11 6 9 13 11 5 9 4 5 4 1 3 4 2 4 10 15 15 13 1 11 14 13 13 8 14 11 7 5 2 3 8 11 11 13 8 13 16 15 14
13 14 15 17 3 13 1 19 12 10 3 10 9 5 5 5 1 4 3 3 3 15 13 4 3 16 16 16 14 11 3 8 12 8 6 1 7 10 13 14 12 13 14 16 16
12 12 12 11 6 5 11 23 11 2 4 15 7 4 10 4 3 7 19 5 1 6 7 6 11 14 14 14 14 8 9 5 6 6 1 5 5 14 4 10 13 13 16 16 14
11 11 9 5 7 9 20 16 1 2 5 7 8 15 13 4 2 3 3 5 5 3 2 2 1 7 5 3 10 13 9 6 5 1 7 9 9 13 11 6 5 9 7 7 7
8 5 5 6 6 18 18 3 2 5 7 11 10 14 12 5 2 2 2 4 3 3 5 3 3 1 6 9 8 3 13 4 3 5 14 3 7 15 5 4 3 3 2 4 3
8 4 4 10 12 14 8 2 7 2 3 9 10 15 5 11 7 3 2 2 4 4 4 7 5 7 7 5 9 12 12 5 10 7 9 2 9 5 6 2 7 6 8 7 8
6 4 3 12 11 11 2 5 1 3 5 8 10 5 4 7 7 8 3 2 3 5 4 1 3 1 1 2 12 7 7 3 6 1 2 6 4 8 9 9 4 5 4 8 6
5 3 4 11 10 6 3 3 1 3 5 3 5 6 5 9 9 12 9 7 8 6 8 3 3 3 4 1 4 13 8 3 1 5 6 6 4 5 3 12 2 1 3 3 4
3 1 9 11 6 4 3 1 3 4 5 4 3 3 5 5 4 5 9 5 11 9 5 2 2 3 5 4 9 5 7 4 3 5 7 8 7 5 6 2 6 6 4 5 5
2 1 9 12 2 2 2 3 2 2 2 2 2 3 4 6 3 4 5 5 10 8 4 2 2 3 2 1 4 8 6 7 5 7 7 4 8 3 2 2 4 5 4 5 2
2 1 6 5 2 2 1 1 2 2 1 1 3 2 4 5 4 6 5 1 7 6 6 5 2 1 1 1 1 7 11 17 10 2 11 7 5 2 1 1 1 2 0 1 2
2 0 2 2 2 2 1 1 2 2 2 2 2 3 4 3 2 5 8 4 7 2 4 6 2 3 4 4 3 5 12 15 17 5 12 15 15 0 3 3 2 2 1 2 3
2 1 1 2 2 3 1 2 1 1 2 1 1 1 2 3 6 3 4 8 5 3 3 3 2 2 2 7 9 8 10 16 19 24 11 23 17 17 8 3 1 1 1 2 4
4 3 2 3 3 4 2 3 4 3 3 2 3 2 1 1 4 5 6 3 3 5 7 2 2 1 3 1 5 11 11 9 17 20 20 22 19 4 9 7 8 5 4 4 6
3 3 2 5 4 4 4 5 6 4 3 4 4 2 6 11 7 6 9 11 10 5 3 2 3 2 2 3 4 5 13 16 13 14 19 18 24 6 10 12 7 7 5 5 6
Wind_Direction
8 1 356 354 346 340 331 324 320 314 308 307 303 301 300 300 295 293 263 236 240 260 254 262 293 215 151 46 358 294 247 241 228 216 221 143 201 154 140 156 180 171 344 81 149
356 355 352 348 348 343 337 331 326 315 309 306 306 304 301 300 285 277 277 243 238 244 259 223 238 187 170 168 153 250 230 246 272 241 246 167 221 167 183 177 191 170 86 137 150
338 337 337 335 338 338 338 335 330 322 312 306 300 307 301 293 289 280 275 252 233 237 233 241 223 206 190 160 158 180 240 266 275 266 251 236 197 193 211 206 209 196 157 159 161
328 325 324 323 327 329 330 331 328 325 321 311 298 307 299 262 245 42 5 271 239 221 219 214 206 204 207 188 183 178 200 255 277 265 243 227 156 202 224 199 337 213 160 163 173
330 326 322 319 321 322 322 322 321 321 319 315 303 310 309 226 233 280 289 309 235 206 207 203 196 204 201 191 184 208 192 225 245 243 242 192 211 233 237 222 27 147 164 173 181
331 333 331 324 321 321 319 316 314 313 314 309 301 312 287 228 252 269 289 302 210 191 199 198 207 211 205 200 189 201 215 212 238 224 225 230 229 183 210 188 176 167 187 185 186
335 332 330 331 328 322 317 315 311 310 308 299 293 305 251 270 287 288 284 292 223 194 193 197 214 202 146 180 233 178 201 220 223 202 204 212 236 228 205 173 183 194 195 195 197
335 337 335 331 330 326 321 316 314 311 306 289 279 284 260 266 277 263 254 267 248 201 210 207 196 202 208 124 124 186 206 209 229 214 223 195 245 235 210 206 217 198 204 202 201
333 334 340 337 334 332 324 323 325 320 325 309 266 211 284 315 262 282 223 232 194 187 202 195 198 192 152 167 156 192 212 218 219 215 206 208 234 239 230 203 232 209 208 210 206
331 334 339 338 336 335 329 336 336 341 346 68 89 262 277 306 324 240 182 284 176 158 137 166 193 187 194 191 203 196 215 214 216 192 224 203 230 195 172 219 221 230 219 215 215
332 335 335 339 337 340 345 350 5 345 359 311 296 281 281 324 9 145 212 93 153 169 159 179 178 199 196 197 225 198 202 216 219 179 203 217 229 227 205 206 223 227 219 227 231
345 340 342 341 340 348 6 37 355 293 308 312 287 269 275 276 339 8 125 172 184 174 152 166 215 213 205 195 192 188 194 204 139 124 213 225 239 241 239 238 225 233 228 220 231
343 341 342 342 335 358 25 23 352 340 280 312 329 317 346 350 69 22 264 336 200 176 183 194 277 166 180 176 182 193 213 184 211 123 101 190 244 235 249 249 243 241 248 244 232
340 340 344 350 15 342 39 342 349 330 302 5 344 360 330 329 85 16 267 340 162 192 183 209 155 175 184 189 193 186 172 160 133 166 220 349 254 219 219 229 226 235 233 236 233
334 334 342 1 322 336 318 331 331 252 22 339 325 301 328 310 326 44 29 64 292 188 193 170 163 171 175 196 195 203 144 126 106 116 157 196 258 248 138 226 226 220 229 230 238
324 326 337 354 334 325 328 331 92 311 348 343 322 347 356 334 334 116 76 73 297 148 221 116 131 170 162 119 181 130 114 52 56 41 254 217 234 251 227 212 234 247 226 229 231
332 328 359 11 331 331 335 0 34 60 340 330 329 335 344 316 252 212 111 101 45 319 169 94 145 325 144 111 149 172 157 137 176 208 236 145 233 246 241 249 198 286 179 170 198
33 31 40 19 344 339 350 41 58 82 333 306 319 320 11 348 3 333 121 94 118 192 251 160 174 193 169 178 182 187 184 168 195 202 213 133 237 221 243 237 258 261 275 268 268
353 357 27 357 354 347 25 52 147 194 327 328 325 341 344 355 339 348 36 346 158 156 316 165 107 226 167 152 159 180 207 106 107 47 188 201 258 254 281 270 213 233 248 256 247
356 5 4 358 353 12 63 98 220 237 328 301 17 357 335 337 8 7 6 10 355 195 227 25 106 31 290 88 108 205 146 170 164 216 241 214 269 259 242 249 2 124 264 273 207
2 7 350 351 350 41 74 151 274 251 305 334 5 316 305 332 359 11 359 45 350 328 256 177 327 61 130 209 178 151 190 200 233 236 247 262 254 221 244 334 312 307 295 301 217
86 351 348 357 31 53 100 179 278 320 327 348 309 274 302 323 339 358 21 349 345 326 334 33 22 205 101 46 219 211 225 200 203 202 234 285 250 132 158 337 311 320 284 302 251
80 331 4 2 100 89 103 264 256 230 292 356 323 338 324 311 313 25 358 318 336 24 354 338 196 173 78 274 207 219 204 201 211 16 223 221 246 62 216 286 357 359 77 181 171
123 199 18 41 100 116 112 69 317 272 264 281 310 322 317 325 317 330 348 359 349 352 11 329 225 232 258 23 338 214 215 213 210 206 226 235 244 239 213 168 71 66 126 186 202
41 148 352 160 176 126 162 128 310 255 238 234 148 198 337 328 327 0 344 332 347 17 338 347 320 337 332 345 274 263 247 222 216 231 224 252 244 238 207 166 129 141 313 185 185
142 152 172 135 141 166 198 221 207 237 208 201 202 165 294 266 287 299 336 345 313 337 344 41 293 307 264 259 234 235 251 261 233 242 248 256 265 271 268 258 250 209 208 214 186
140 125 142 166 175 180 218 207 204 194 218 239 188 242 269 276 268 271 277 270 261 283 291 301 311 283 252 323 286 242 215 216 236 238 237 251 251 230 240 246 240 226 235 242 220